Location: Bastelaar
(51.0950°N, 3.8602°E)
Time: 01:36:54
(UTC+00:00)

ARIANE 6 FM1 Upper Stage - Pass Details

Date: 29 January 2026
Orbit: 522 x 609 km, 62.0° (Epoch: 13 February)

Event Time Altitude Azimuth Distance (km) Brightness Sun altitude
Rises 17:32:32 0° 233° (SW) 2,701 7.6 -9.9°
Reaches altitude 10° 17:34:46 10° 235° (SW) 1,799 6.6 -10.2°
Maximum altitude 17:38:47 70° 319° (NW) 571 2.8 -10.9°
Enters shadow 17:42:21 13° 43° (NE) 1,611 4.5 -11.4°
